sat.trackr.live / text

‹ back to catalog

STARLINK-30452

NORAD 57925 · 2023-147N

PAYLOAD ACTIVE UNKNOWN

§ Identity

Operator
Country
US
Launch date
2023-09-24
Launch site
AFETR
Launch vehicle
Mass (kg)
RCS (m²)

Purposes: comms

External: N2YO · Heavens-Above · Gunter

§ Orbital elements

Epoch: 2026-05-24T16:08:25.886112Z

Period
94.27 min
Inclination
43.0029°
Eccentricity
0.0001481
Mean motion
15.27571239 rev/d
Perigee alt
482.1 km
Apogee alt
484.1 km
Semi-major
6,861.2 km
B*
-2.2034e-5
RAAN
256.5169°
Arg perigee
270.9315°
Mean anomaly
89.1367°
Rev number
14,821

§ Raw data

STARLINK-304521 57925U 23147N   26144.67252183 -.00000868  00000+0 -22034-4 0  99942 57925  43.0029 256.5169 0001481 270.9315  89.1367 15.27571239148215

JSON: /api/v1/satellites/57925 · /tle

For live sub-satellite position, see the globe view (requires WebGL).

§ Visibility from observer

Set your observer location to see the next 7 days of passes ≥ 10°. The values pass through the URL so the page stays shareable.

No JS? Fill the form by hand. The geolocation button needs JavaScript.